Miscellaneous Local Product
Issued by NWS North Platte, NE

Home | Current Version | Previous Version | Text Only | Print | Product List | Glossary On
Versions: 1 2 3 4 5 6 7 8 9 10 11 12 13 14 15 16 17 18 19 20 21 22 23 24 25 26 27 28 29 30 31 32 33 34 35 36 37 38 39 40 41 42 43 44 45 46 47 48 49 50
306
AXUS43 KLBF 080010
MISLBF


WESTERN AND NORTH CENTRAL NEBRASKA HOURLY WEATHER ROUNDUP
NATIONAL WEATHER SERVICE NORTH PLATTE NE
600 PM CST WED DEC 07 2016

NOTE: "FAIR" INDICATES FEW OR NO CLOUDS BELOW 12,000 FEET WITH NO
SIGNIFICANT WEATHER AND/OR OBSTRUCTIONS TO VISIBILITY.

NOTE: STATIONS NOT REPORTING VARIABLES SUCH AS SKY/WEATHER OR
PRESSURE ARE PROVIDED BY RAWS AND APRS NETWORKS AND ARE NOT UNDER
NATIONAL WEATHER SERVICE QUALITY CONTROL.

...OBSERVATIONS IN AND NEAR THE EASTERN PANHANDLE OF NEBRASKA...

CITY           SKY/WX    TMP DP  RH WIND       PRES   REMARKS
PINE RIDGE     CLEAR      0  -5  79 CALM      30.39R
CHADRON        CLEAR      8  -5  55 W16       30.42R WCI -10
ALLIANCE       CLEAR      8  -2  63 NW10      30.35R WCI  -6
SIDNEY         CLEAR      5  -3  69 NW9       30.34R WCI  -9
$$

...OBSERVATIONS IN NORTHERN NEBRASKA AND FAR SOUTHERN SOUTH DAKOTA...

CITY           SKY/WX    TMP DP  RH WIND       PRES   REMARKS
WINNER         FAIR      12   1  61 NW20      30.41R WCI  -6
VALENTINE      CLEAR     10  -1  61 NW13      30.40R WCI  -5
THEDFORD       CLEAR     13   1  58 NW8       30.39R WCI   1
AINSWORTH      CLEAR     12   2  65 NW12      30.38R WCI  -2
O`NEILL        CLEAR     14   3  61 NW16G23   30.38R WCI  -2
ORD            CLEAR     16   0  49 NW14      30.38R WCI   2
BROKEN BOW     CLEAR     17   2  51 NW15      30.37R WCI   2
VALENTINE NWR    N/A     12  -1  56 NW13G23     N/A  WCI  -3
BUTTE            N/A     11   3  68 W23G31      N/A  WCI  -9
HALSEY           N/A     14  -1  50 NW9G17      N/A  WCI   2
CHAMBERS         N/A     13  -2  50 E5          N/A  WCI   5
EWING            N/A     15   5  64 NW8G17      N/A  WCI   4
$$

...OBSERVATIONS IN SOUTHWEST NEBRASKA AND FAR NORTHEAST COLORADO...

CITY           SKY/WX    TMP DP  RH WIND       PRES   REMARKS
HOLYOKE        FAIR      14   7  73 NW9       30.37R WCI   2
IMPERIAL       CLEAR     10   3  73 NW6       30.39R WCI   0
OGALLALA       CLEAR     10   3  73 NW7       30.38R WCI   0
NORTH PLATTE   CLEAR     13   5  70 NW8       30.39R WCI   2
MCCOOK         CLOUDY    17  10  74 NW8       30.42R WCI   7
LEXINGTON      CLEAR     15   3  60 NW8       30.39R WCI   4
STAPLETON        N/A     12   1  60 CALM        N/A
GOTHENBURG       N/A     17   3  55 NW7         N/A  WCI   8
CALLAWAY         N/A     13   2  62 NW13        N/A  WCI  -1
$$

...OBSERVATIONS IN CENTRAL LINCOLN COUNTY AREA...

CITY           SKY/WX    TMP DP  RH WIND       PRES   REMARKS
N.P. AIRPORT   CLEAR     13   5  70 NW8       30.39R WCI   2
N.P. DOWNTOWN    N/A     15   7  69 W3          N/A
N.P. SOUTHEAST   N/A     15   6  67 NW3         N/A
N.P. HILLCREST   N/A     14   5  68 NW7         N/A  WCI   4
$$

...SOME OBSERVATIONS FROM AROUND THE REGION...

CITY           SKY/WX    TMP DP  RH WIND       PRES   REMARKS
LARAMIE        CLOUDY    -3  -7  82 N3        30.14R
CHEYENNE       CLOUDY     0  -6  76 N6        30.21R WCI -12
DENVER         MOCLDY     6   1  80 N6        30.29R WCI  -4
AKRON          CLEAR      4  -1  80 NW10      30.32R WCI -11
SCOTTSBLUFF    CLEAR      7  -3  64 NW10      30.38R WCI  -8
RAPID CITY     PTCLDY     7  -5  57 N20       30.38R WCI -13
BISMARCK       MIX PCPN   4  -2  76 NW17G28   30.38R WCI -16
PIERRE         CLOUDY    11   1  64 NW29G39   30.41R WCI -11
SIOUX FALLS    PTCLDY    15   6  67 W23G32    30.28R WCI  -3
OMAHA          PTCLDY    22   7  52 NW13      30.37R WCI  10
GRAND ISLAND   CLEAR     18   3  52 NW10      30.40R WCI   6
KANSAS CITY    PTCLDY    24  11  57 NW8       30.37R WCI  15
WICHITA        MOCLDY    27  20  75 N13       30.40R WCI  16
OKLAHOMA CITY  CLOUDY    34  26  72 NE20G26   30.28R WCI  23
DALLAS         CLOUDY    50  38  63 N13       30.14R
AMARILLO       CLOUDY    29  20  69 N18       30.23R WCI  16
DODGE CITY     CLOUDY    22  17  81 N15       30.37R WCI   9
HAYS           CLOUDY    21  14  74 N15       30.43R WCI   8
GOODLAND       CLOUDY    14   8  77 N8        30.36R WCI   3
$$




USA.gov is the U.S. government's official web portal to all federal, state and local government web resources and services.